Regional Weather Roundup
Issued by NWS

Home | Current Version | Previous Version | Graphics & Text | Print | Product List | Glossary On
Versions: 1 2 3 4 5 6 7 8 9 10 11 12 13 14 15 16 17 18 19 20 21 22 23 24 25 26 27 28 29 30 31 32 33 34 35 36 37 38 39 40 41 42 43 44 45 46 47 48 49 50
000
ASUS43 KMKX 250821
RWRWI

WISCONSIN REGIONAL WEATHER ROUNDUP
NATIONAL WEATHER SERVICE MILWAUKEE/SULLIVAN WI
300 AM CDT FRI MAY 25 2018

NOTE: "FAIR" INDICATES FEW OR NO CLOUDS BELOW 12,000 FEET WITH NO
SIGNIFICANT WEATHER AND/OR OBSTRUCTIONS TO VISIBILITY.

WIZ001-002-006>008-014>016-023>028-250900-
NORTHWEST WISCONSIN

CITY           SKY/WX    TMP DP  RH WIND       PRES   REMARKS
SUPERIOR ARPT  MOCLDY    49  49 100 CALM      29.78F FOG
ASHLAND        FAIR      67  61  81 S5        29.79S
HAYWARD        FAIR      69  61  75 S9        29.83F
SIREN          FAIR      71  59  67 S9        29.81F
CUMBERLAND     FAIR      64  59  82 S6        29.83F
RICE LAKE      FAIR      67  62  83 SE5       29.84F
CHETEK         LGT RAIN  66  62  86 E6        29.82F
LADYSMITH      FAIR      65  61  86 CALM      29.85F
EAU CLAIRE     FAIR      64  63  96 S3        29.86F
MENOMONIE      FAIR      66  64  91 S7        29.87F
NEW RICHMOND   LGT RAIN  67  60  76 S12       29.86R
OSCEOLA        FAIR      68  62  82 S5        29.87R
$$

WIZ003>005-009-010-017-018-250900-
NORTH CENTRAL WISCONSIN

CITY           SKY/WX    TMP DP  RH WIND       PRES   REMARKS
MANITOWISH WTR FAIR      64  64 100 S6        29.86F
ARBOR VITAE    FAIR      66  62  88 SW8       29.88F
WOODRUFF       FAIR      66  62  88 SW8       29.88F
RHINELANDER    FAIR      69  62  78 SW10      29.90F
EAGLE RIVER    FAIR      64  63  97 S3        29.88F
LAND O LAKES   FAIR      63  62  96 SW5       29.90F
PHILLIPS       FAIR      64  61  89 S5        29.85F
TOMAHAWK       FAIR      67  57  72 CALM      29.91F
MEDFORD        FAIR      67  58  72 SW8       29.89F
MERRILL        FAIR      68  63  83 CALM      29.92
$$

WIZ029-030-035-036-043>047-250900-
CENTRAL WISCONSIN

CITY           SKY/WX    TMP DP  RH WIND       PRES   REMARKS
WAUSAU         FAIR      69  63  81 VRB3      29.89F
MOSINEE        FAIR      64  61  88 SW6       29.93F
MARSHFIELD     FAIR      67  61  81 SW5       29.91F
STEVENS POINT  FAIR      70  62  76 W6        29.93F
WAUPACA        FAIR      71  62  73 S6        29.92F
WAUTOMA        FAIR      62  60  93 CALM      29.94S
WISC RAPIDS    FAIR      69  62  78 SW5       29.93F
CAMP DOUGLAS   FAIR      72  62  72 SW7       29.92F
$$

WIZ011>013-019>022-031-037>040-048>050-250900-
NORTHEAST WISCONSIN

CITY           SKY/WX    TMP DP  RH WIND       PRES   REMARKS
ANTIGO         FAIR      65  61  86 SW7       29.92F
SHAWANO        FAIR      70  61  71 CALM      29.90S
OCONTO         MOCLDY    63  58  83 CALM      29.89F
STURGEON BAY   NOT AVBL
GREEN BAY      FAIR      69  59  70 S7        29.91F
MANITOWOC      FAIR      69  55  60 SW3       29.93F
APPLETON       FAIR      70  55  60 SW10      29.91F
CLINTONVILLE   FAIR      70  59  68 SW6       29.90F
OSHKOSH        FAIR      69  59  70 S10       29.92F
$$

WIZ032>034-041-042-053>061-250900-
SOUTHWEST WISCONSIN

CITY           SKY/WX    TMP DP  RH WIND       PRES   REMARKS
LA CROSSE      FAIR      73  65  75 SE7       29.88F
SPARTA         FAIR      63  61  95 E3        29.92F
VIROQUA        FAIR      69  64  84 S7        29.94F
BOSCOBEL       FAIR      65  62  90 CALM      29.93F
PRAIRIE DU CHI FAIR      69  61  73 CALM      29.92F
PLATTEVILLE    FAIR      67  62  82 S5        29.97S
$$

WIZ056-057-062-063-064-067-068-250900-
SOUTH CENTRAL WISCONSIN

CITY           SKY/WX    TMP DP  RH WIND       PRES   REMARKS
REEDSBURG      FAIR      70  61  74 CALM      29.93F
BARABOO/DELLS  FAIR      70  59  68 SW8       29.94F
LONE ROCK      FAIR      65  63  93 E5        29.94F
MINERAL POINT  FAIR      70  61  73 S6        29.97S
MADISON        FAIR      70  60  70 S6        29.94F
MIDDLETON      FAIR      71  60  67 SW6       29.95F
WATERTOWN      FAIR      66  60  81 S6        29.96F
MONROE         FAIR      68  57  68 S8        29.97F
JANESVILLE     FAIR      64  55  72 CALM      29.97F
$$

WIZ051-052-058>065-066-070>072-250900-
SOUTHEAST WISCONSIN

CITY           SKY/WX    TMP DP  RH WIND       PRES   REMARKS
MILWAUKEE      FAIR      67  54  63 SW8       29.96F
WAUKESHA       FAIR      63  52  67 S5        29.98F
MILWAUKEE/TIMM FAIR      68  50  52 SW8       29.98S
RACINE         FAIR      68  53  58 SW8       29.99F
BURLINGTON     FAIR      59  56  91 CALM      29.98F
KENOSHA        FAIR      65  53  65 SW6       29.98F
FOND DU LAC    FAIR      66  57  72 S7        29.94F
SHEBOYGAN      FAIR      61  54  77 S7        29.94F
WEST BEND      FAIR      64  54  68 S6        29.96F
JUNEAU         FAIR      66  58  75 S6        29.97S
$$

LSZ147-162-250900-
LAKE SUPERIOR

STATION/POSITION TIME  TEMP    WIND        PRES    WAVE
                       AIR SEA DIR/SP/G            HT/PER
                 (UTC) (F)     (DEG/KT/KT) (MB)    (FT/S)
W MID LAKE BUOY  0750   49 36   80/  6/  6 1008.5F   0
DEVILS ISLAND    0800   45     220/  9/  9 1009.2R
SAXON HARBOR     0730   74     200/ 10/ 16 1007.8F
$$

LMZ867-665-643>646-250900-
LAKE MICHIGAN

STATION/POSITION TIME  TEMP    WIND        PRES    WAVE
                       AIR SEA DIR/SP/G            HT/PER
                 (UTC) (F)     (DEG/KT/KT) (MB)    (FT/S)
N MID LAKE BUOY  0800   46 38  190/ 10/ 14 1012.5
NORTHPORT PIER   0740   61      CALM  /  2 1012.5F
KEWAUNEE LAKESHO 0754   58     200/  7/ 11 1012.4F
SHEBOYGAN LAKESH 0800   68     210/ 10/ 11 1013.7F
PORT WASHINGTON  0740   60      CALM  /  2 1015.6F
ATWATER BUOY     0737   60 49  180/  8/ 10 1014.7F   0
MILWAUKEE LAKESH 0800   67     190/  5/  6   N/A
S MID LAKE BUOY  0750   50 39  170/ 10/ 10 1015.9F   0
KENOSHA   LAKESH 0800   67                 1014.9
$$

TC  - TEMPERATURE IN CELSIUS
VSB - VISIBILITY IN STATUTE MILES
WCI - WIND CHILL INDEX
HX  - HEAT INDEX





USA.gov is the U.S. government's official web portal to all federal, state and local government web resources and services.